www.pogodaiklimat.ru

Погода и климат >> Архив погоды >> Россия >> Ненецкий АО >> Варандей


ПОГОДА в Варандее

  • Прогноз погоды в Варандее
  • Монитор погоды в Варандее

АРХИВ ПОГОДЫ в Варандее

Время (UTC), дата Ветер
(напр.,м/с)
 
Видим.   Явления Облачность Т
(С)
Тd
(С)
f
(%)
Тe
(С)
Тes
(С)
Комфортность P
(гПа)
Po
(гПа)
Тmin
(С)
Tmax
(С)
R
(мм)
R24
(мм)
S
(см)
06 9.01 штиль 0 20 км 3/0
[Cs]
-16.6 -17.6 92 -17 -17 1009.5 1008.6
09 9.01 штиль 0 20 км 4/3 600 м
[Sc Ci fib]
-22.3 -24.1 85 -22 -22 1011.6 1010.7
12 9.01 штиль 0 20 км 6/6 600 м
[Sc]
-17.6 -18.7 91 -18 -18 1012.8 1011.9
15 9.01 штиль 0 20 км 10/0 2000 м
[As op]
-18.0 -19.2 90 -18 -18 1012.5 1011.6 -14.7
18 9.01 штиль 0 20 км 6/0 2000 м
[As op]
-13.1 -13.7 95 -13 -13 1013.2 1012.3
21 9.01 З 1 20 км ясно -16.0 -17.0 92 -19 -19 1014.0 1013.1
00 10.01 ЮЗ 5 20 км ясно -14.5 -15.2 94 -23 -23 1013.4 1012.5
03 10.01 ЮЗ 6 4000 м слаб. снег 6/0 2000 м
[As op]
-18.9 -20.1 90 -30 -30 1012.0 1011.1 -20.4 0.0 56
06 10.01 ЮЗ 4 4000 м дымка {снег} 6/3 600 м
[Sc diur, vesp As op]
-18.0 -19.1 91 -26 -26 1012.7 1011.8
09 10.01 ЮВ 2 10 км {снег} 8/0
[Ac As]
-17.9 -19.1 90 -23 -23 1014.0 1013.1
12 10.01 ЮВ 3 20 км {снег} 10/6 300 м
[Sc diur, vesp As op]
-16.6 -17.6 92 -24 -24 1014.5 1013.6
15 10.01 Ю 4 20 км 10/10 300 м
[Sc]
-16.7 -17.7 92 -25 -25 1013.6 1012.7 -15.6 0.0
18 10.01 Ю 6 20 км 10/10 300 м
[St]
-15.0 -15.9 93 -25 -25 1011.3
21 10.01 Ю 9-12
{13}
20 км позёмок 10/10 300 м
[Sc]
-13.9 -14.7 94 -25 -25 1009.6 1008.7
00 11.01 Ю 12-14
{15}
10 км сильный позёмок 10/10 300 м
[Sc]
-17.0 -18.1 91 -31 -31 опасность
обморожения
1007.6 1006.7
03 11.01 Ю 12-15
{15}
10 км сильный позёмок 10/10 300 м
[Sc]
-20.2 -21.6 89 -35 -35 опасность
обморожения
1004.8 1003.9 -20.2 56
06 11.01 Ю 11-14
{16}
4000 м слаб. снег {метель} 10/0 2000 м
[As op]
-19.3 -20.5 90 -33 -33 опасность
обморожения
1001.7 1000.8 -20.3
09 11.01 Ю 14-17
{19}
500 м слаб. снег {метель} 10/0
[As op]
-16.3 -17.3 92 -30 -30 1000.1 999.2
12 11.01 Ю 12-17
{18}
2000 м метель {снег} 10/0
[As op]
-12.8 -13.4 95 -25 -25 997.7 996.8
15 11.01 Ю 13-18
{21}
2000 м метель 10/0
[As op]
-13.2 -13.8 95 -26 -26 994.4 993.5 -12.1 5
18 11.01 Ю 14-19
{20}
2000 м метель 10/0
[As op]
-12.9 -13.5 95 -26 -26 992.7 991.8
21 11.01 Ю 6-10
{19}
10 км {метель} 10/0
[As op]
-12.7 -13.4 94 -22 -22 992.8 991.9
00 12.01 Ю 10-14
{14}
10 км позёмок 10/0
[As op]
-12.4 -13.0 95 -24 -24 990.3 989.4
03 12.01 Ю 10-14
{15}
10 км позёмок 10/0
[As op]
-11.0 -11.5 96 -22 -22 988.9 988.0 -13.4 58
06 12.01 Ю 11
{16}
10 км позёмок 10/0
[As op]
-10.2 -10.6 97 -21 -21 988.1 987.2
09 12.01 Ю 11
{16}
1000 м позёмок 10/0
[As op]
-9.7 -10.1 97 -21 -21 987.9 987.0
12 12.01 Ю 10-13
{15}
10 км позёмок 9/9 300 м
[Sc]
-9.8 -10.3 96 -21 -21 987.9 987.0
15 12.01 Ю 10-12
{14}
10 км позёмок 10/0
[As op]
-9.3 -9.8 96 -20 -20 987.7 986.8 -9.2
18 12.01 Ю 7
{13}
20 км {метель} 10/0
[As trans]
-10.8 -11.6 94 -20 -20 987.5 986.6
21 12.01 Ю 9-11
{11}
20 км 10/0
[As trans]
-8.4 -9.1 95 -18 -18 986.6 985.7
00 13.01 Ю 9-13
{19}
20 км 10/0
[As op]
-9.5 -10.4 93 -20 -20 986.9 985.2
03 13.01 Ю 9-11
{13}
10 км 9/9 300 м
[Sc]
-10.9 -11.6 95 -21 -21 985.4 984.5 -10.9 59
06 13.01 Ю 7
{12}
10 км 9/9 300 м
[Sc]
-11.4 -12.1 95 -21 -21 985.6 984.7 -11.4
09 13.01 ЮВ 4
{10}
10 км 8/8 300 м
[Sc]
-12.5 -13.6 91 -20 -20 985.1 984.2
12 13.01 Ю 6 20 км 9/9 300 м
[Sc]
-10.8 -11.7 93 -19 -19 984.9 984.0
15 13.01 Ю 7
{10}
10 км слаб. снег 10/0
[As op]
-11.0 -11.9 93 -20 -20 984.3 983.4 -10.7 0.0
18 13.01 Ю 6 10 км слаб. снег 10/0
[As op]
-11.2 -12.4 91 -20 -20 984.3 983.4
21 13.01 Ю 6 10 км слаб. снег 10/0
[As op]
-11.9 -12.8 93 -21 -21 984.6 983.7
00 14.01 Ю 6
{12}
20 км {снег} 10/0
[As op]
-12.4 -13.5 91 -21 -21 985.1 984.2
03 14.01 Ю 8
{11}
20 км 10/4 600 м
[Sc As trans]
-12.5 -13.5 92 -23 -23 985.6 984.7 -13.0 4 57
06 14.01 штиль 0-10
{11}
50 км ?/? -12.3 -13.5 91 -12 -12 986.3 985.4
09 14.01 Ю 8-10
{11}
20 км 10/0
[As op]
-12.2 -13.2 92 -22 -22 987.4 986.5
12 14.01 Ю 7
{10}
20 км 10/0
[As op]
-12.6 -13.6 92 -22 -22 988.3 987.4
15 14.01 Ю 6
{10}
20 км ясно -12.1 -13.0 93 -21 -21 989.2 988.3 -11.6
18 14.01 Ю 7
{10}
10 км ясно -12.4 -13.2 94 -22 -22 990.2 989.3
21 14.01 Ю 8
{10}
10 км 10/0
[As op]
-12.2 -12.8 95 -22 -22 991.3 990.4
00 15.01 Ю 9-11
{11}
10 км позёмок 10/0
[As op]
-10.4 -10.8 97 -21 -21 992.0 991.1
03 15.01 ЮЗ 10-11
{11}
н/о н/о -9.7 -10.1 97 -20 -20 992.6 991.7 -12.8
06 15.01 ЮЗ 9-11
{11}
4000 м слаб. снег {метель} 10/0
[As op]
-9.1 -9.5 97 -19 -19 993.4 992.5
09 15.01 Ю 8
{11}
4000 м слаб. снег {метель} 10/0
[As op]
-10.2 -10.6 97 -20 -20 994.5 993.6
12 15.01 Ю 8
{11}
4000 м слаб. снег {метель} 10/0
[As op]
-10.2 -10.6 97 -20 -20 994.5 993.6
15 15.01 ЮЗ 7
{10}
10 км позёмок {снег} 9/5 300 м
[Sc Ac As]
-11.6 -12.2 95 -21 -21 995.1 994.2
18 15.01 Ю 7 20 км {метель} 4/0
[Ac lent]
-14.3 -15.1 94 -24 -24 995.7 994.8 -9.1 2
21 15.01 Ю 7 20 км 10/10 300 м
[Sc]
-12.6 -13.2 95 -22 -22 997.3 996.4
00 16.01 Ю 4 20 км 10/10 300 м
[Sc]
-11.5 -12.0 96 -19 -19 998.5 997.6

 

Местоположение метеостанции Варандей (Ненецкий АО, Россия): широта 68.82 долгота 58.02 высота над уровнем моря 7 м.

В архиве по умолчанию представлена погода в Варандее за последнюю неделю. Архивные данные за месяц целиком и за предыдущие месяцы, начиная с января 2011 года, Вы можете получить, выбрав интересующий диапазон дат из раскрывающегося списка и нажав кнопку "Ввод!".


*Определитесь, кто Вы:
робот инопланетянин человек

Внимание! Время в таблицах - всемирное. Для получения местного времени необходимо прибавить поправку, которая равна 3 ч.

Смотрите также архив погоды в соседних городах и на ближайших метеорологических станциях:

Погода на Мысе Константиновском (Ненецкий АО, Россия) (106 км)
Погода на Мысе Белый Нос (Ненецкий АО, Россия) (122 км)
Погода в Хорей-Вере (Ненецкий АО, Россия) (155 км)
Погода в Ходоварихе (Ненецкий АО, Россия) (172 км)
Погода в Амдерме (Ненецкий АО, Россия) (179 км)
Погода в Имени Федорова (Ненецкий АО, Россия) (186 км)
Погода в Нарьян-Маре (Ненецкий АО, Россия) (245 км)
Погода в Сенгейском Шаре (Ненецкий АО, Россия) (277 км)
Погода в Усть-Каре (Ненецкий АО, Россия) (279 км)
Погода в Воркуте (Коми, Россия) (288 км)

Пояснения к столбцам:

Ветер - указаны скорость ветра в м/с - средняя за 10 мин, порывы в срок и между сроками (в фигурных скобках) и направление, откуда дует ветер: С - северный, СВ - северо-восточный, В - восточный, ЮВ - юго-восточный, Ю - южный, ЮЗ - юго-западный, З - западный, СЗ - северо-западный.
Видимость - горизонтальная дальность видимости в метрах или километрах. При видимости от 1 до 10 км при отсутствии осадков обычно наблюдается дымка, при ухудшении видимости до 1 км и менее - туман. В сухую погоду видимость может ухудшаться дымом, пылью или мглою.
Явления - указаны атмосферные явления, наблюдавшиеся в срок или в последний час перед сроком; фигурными скобками обозначены явления, наблюдавшиеся между сроками (за 1-3 часа до срока); квадратными скобками обозначены град или гололедные отложения с указанием их диаметра в мм.
Облачность - указаны через наклонную черту общая и нижняя облачность в баллах и высота нижней границы облаков в метрах; квадратными скобками обозначены формы облаков: Ci - перистые, Cs - перисто-слоистые, Cc - перисто-кучевые, Ac - высококучевые, As - высокослоистые, Sc - слоисто-кучевые, Ns - слоисто-дождевые, Cu - кучевые, Cb - кучево-дождевые. Подробнее классификацию облаков см. в Атласе облаков (PDF).
T - Температура воздуха - температура, измеренная на высоте 2 м над землей.
Td - Температура точки росы - температура, при понижении до которой содержащийся в воздухе водяной пар достигнет насыщения.
f - Относительная влажность воздуха - влажноcть воздуха, измеренная на высоте 2 м над землей.
Te - Эффективная температура - температура, которую ощущает одетый по сезону человек в тени. Характеристика душности погоды. При расчете учитывается влияние влажности воздуха и скорости ветра на теплоощущения человека.
Tes - Эффективная температура на солнце - температура, которую ощущает человек, с поправкой на солнечный нагрев. Характеристика знойности погоды. Зависит от высоты солнца над горизонтом, облачности и скорости ветра. Ночью, в пасмурную погоду, а также при ветре 12 м/с и более поправка равна нулю.
P - Атмосферное давление - приведенное к уровню моря атмосферное давление.
Po - Атмосферное давление - измеренное на уровне метеостанции атмосферное давление.
Tmin - Минимальная температура - минимум температуры воздуха на высоте 2 м над землей.
Tmax - Максимальная температура - максимум температуры воздуха на высоте 2 м над землей.
R - Количество осадков - Количество выпавших осадков за период времени, мм. При наведении курсора мыши на число - период времени, за который выпало указанное количество осадков.
R24 - Количество осадков - Количество выпавших осадков за 24 часа, мм.
S - Снежный покров - Высота снежного покрова, см. При наведении курсора мыши на число - состояние снежного покрова и степень покрытия местности в баллах.